Tracking 23114 objects as of 16-May-2021
HD Live streaming from Space Station
objects crossing your sky now

STARLETTE

Track STARLETTE now!
10-day predictions
STARLETTE is classified as:


NORAD ID: 7646
Int'l Code: 1975-010A
Perigee: 812.0 km
Apogee: 1,113.7 km
Inclination: 49.8 °
Period: 104.2 minutes
Semi major axis: 7333 km
RCS: 0.168 m2 (medium)
Launch date: February 6, 1975
Source: France (FR)
Launch site: FRENCH GUIANA (FRGUI)
aabbcc
Your satellite tracking list
Your tracking list is empty




NASA's NSSDC Master Catalog

Two Line Element Set (TLE):
1 07646U 75010A   21136.57334720 -.00000128  00000-0  13613-4 0  9990
2 07646  49.8231 236.6709 0205733  46.5364 315.2439 13.82309163337582
Source of the keplerian elements: AFSPC